EHI
7 15 31 34 24 17 12 7 4 2 2 2 1 0 0 0 0 0 0 0 0 0 0 0 0 0 0 0 0 0 0 0 0 0 0 0 0 0 0 0 0 0 0
17 22 37 44 34 22 13 6 2 1 1 1 0 0 0 0 0 0 0 0 0 0 0 0 0 0 0 0 0 0 0 0 0 0 0 0 0 0 0 0 0 0 0
35 34 44 55 49 31 15 6 1 0 0 0 0 0 0 0 0 0 0 0 0 0 0 0 0 0 0 0 0 0 0 0 0 0 0 0 0 0 0 0 0 0 0
47 42 47 61 60 40 19 7 1 0 0 0 0 0 0 0 0 0 0 0 0 0 0 0 0 0 0 0 0 0 0 0 0 0 0 0 0 0 0 0 0 0 0
52 48 53 64 63 46 24 8 1 0 0 0 0 0 0 0 0 0 0 0 0 0 0 0 0 0 0 0 0 0 0 0 0 0 0 0 0 0 0 0 0 0 0
60 56 59 65 62 47 26 8 1 0 0 0 0 0 0 0 0 0 0 0 0 0 0 0 0 0 0 0 0 0 0 0 0 0 0 0 0 0 0 0 0 0 0
67 62 61 64 59 45 26 8 1 0 0 0 0 0 0 0 0 0 0 0 0 0 0 0 0 0 0 0 0 0 0 0 0 0 0 0 0 0 0 0 0 0 0
69 65 59 56 50 38 24 9 1 0 0 0 0 0 0 0 0 0 0 0 0 0 0 0 0 0 0 0 1 1 1 0 0 0 0 0 0 0 0 0 0 0 0
66 62 53 45 38 30 21 10 2 0 0 0 0 0 0 0 0 0 0 0 0 0 0 0 0 0 0 1 3 4 2 0 0 0 0 0 0 0 0 0 0 0 0
58 55 46 38 32 25 16 8 3 1 0 0 0 0 0 0 0 0 0 0 0 0 0 0 0 0 1 3 5 5 3 1 0 0 0 0 0 0 0 0 0 0 0
53 47 40 35 30 23 15 7 3 1 0 0 0 0 0 0 0 0 0 0 0 0 0 0 0 0 1 4 6 6 3 1 0 0 0 0 1 1 1 0 0 0 0
49 41 34 30 27 23 16 8 3 1 0 0 0 0 0 0 0 0 0 0 0 0 0 0 0 0 1 2 3 3 1 0 0 0 0 0 1 2 2 1 0 0 0
44 37 27 23 23 20 15 9 4 1 0 0 0 0 0 0 0 0 0 0 0 0 0 0 0 0 0 0 0 0 0 0 0 0 0 0 1 2 2 1 0 0 1
42 35 26 19 16 15 14 9 4 1 0 0 0 0 0 0 0 0 0 0 0 0 0 0 0 0 0 0 0 0 0 0 0 0 0 0 1 2 2 1 0 0 1
39 33 26 19 14 13 13 9 3 0 0 0 0 0 0 0 0 0 0 0 0 0 0 0 0 0 0 0 0 0 0 0 0 0 0 0 1 2 2 1 0 0 1
38 32 24 19 16 14 11 7 4 1 0 0 0 0 0 0 0 0 0 0 0 0 0 0 0 0 0 0 0 0 0 0 0 0 0 0 0 1 1 0 0 0 0
38 33 25 20 17 14 9 6 5 3 1 1 1 0 0 0 0 0 0 0 0 0 0 0 0 0 0 0 0 0 0 0 0 0 0 0 0 1 2 1 1 0 0
35 32 27 22 18 15 11 8 7 5 3 4 3 1 0 0 0 0 0 0 0 0 0 0 0 0 0 0 0 0 0 0 0 0 0 0 0 1 2 2 1 0 0
25 25 25 24 22 19 14 10 8 6 6 7 5 3 1 0 0 0 0 0 0 0 0 0 0 0 0 0 0 0 0 0 0 0 0 0 0 0 1 1 1 0 0
18 19 22 24 24 21 16 11 8 7 7 7 5 2 1 0 0 0 0 0 0 0 0 0 0 0 0 0 0 0 0 0 0 0 0 0 0 0 0 0 0 0 0
17 19 22 23 21 19 16 10 7 6 5 4 2 1 0 0 0 0 0 0 0 0 0 0 0 0 0 0 0 0 0 0 0 0 0 0 0 0 0 0 0 0 0
19 19 20 19 16 13 11 8 4 3 2 1 0 0 0 0 0 0 0 0 0 0 0 0 0 0 0 0 0 0 0 0 0 0 0 0 0 0 0 0 0 0 0
18 18 17 14 11 10 9 7 4 2 1 0 0 0 0 0 0 0 0 0 0 0 0 0 0 0 0 0 0 0 0 0 0 0 0 0 0 0 0 0 0 0 0
16 16 15 13 10 10 10 11 8 4 1 1 0 0 0 0 0 0 0 0 0 0 0 0 0 0 0 0 0 0 0 0 0 0 0 0 0 0 0 0 0 0 0
15 16 15 13 11 11 11 12 9 4 1 1 1 0 0 0 0 0 0 0 0 0 0 0 0 0 0 0 0 0 0 0 0 0 0 0 0 0 0 0 0 0 0
15 16 15 12 10 11 12 11 7 2 1 2 1 0 0 0 0 0 0 0 0 0 0 0 0 0 0 0 0 0 0 0 0 0 0 0 0 0 0 0 0 0 0
Wind_Speed
10 12 18 19 19 18 18 17 17 17 16 16 16 16 16 16 16 15 15 14 13 13 13 12 12 12 12 12 13 13 13 13 14 14 14 14 14 15 16 16 15 12 17
13 14 19 19 19 19 18 17 17 16 16 16 16 15 15 15 15 14 14 14 13 13 12 12 12 12 12 12 12 12 12 12 13 14 14 13 13 14 15 15 14 10 16
16 14 17 19 19 19 18 17 17 16 16 15 15 15 15 14 14 14 14 13 13 12 12 12 11 11 11 11 11 11 10 10 11 13 12 6 8 14 15 15 15 15 15
16 12 15 20 20 20 19 17 17 16 16 15 15 14 14 14 14 14 13 13 12 12 11 11 11 10 10 10 9 9 8 8 9 11 5 4 6 13 14 15 15 14 14
14 12 16 21 20 20 19 17 17 16 16 15 15 14 14 14 13 13 13 12 12 11 11 10 10 9 9 9 8 7 6 6 7 7 5 4 5 12 14 14 14 14 13
13 12 16 21 20 20 19 18 17 16 15 15 15 14 14 13 13 13 12 12 11 11 10 9 9 8 8 7 7 7 6 6 7 5 5 5 5 11 13 13 13 13 13
13 11 14 21 20 20 19 18 17 16 15 15 15 14 13 13 13 12 12 11 11 10 9 8 7 6 6 6 6 7 7 8 6 6 5 4 5 11 12 12 12 12 12
15 12 13 20 20 19 19 18 17 16 15 15 14 14 13 12 12 12 11 11 10 9 8 7 6 5 4 4 5 6 7 8 8 7 5 4 8 11 12 12 12 12 12
14 12 10 11 15 18 18 18 17 16 15 14 14 13 13 12 12 11 10 10 9 8 7 6 5 3 2 2 3 5 6 9 6 4 6 4 8 11 12 12 11 11 11
12 12 10 9 9 9 11 17 17 16 15 14 14 13 12 12 11 10 9 8 8 7 6 5 3 2 0 2 2 3 6 8 5 5 3 5 10 11 12 12 12 11 11
12 10 10 10 8 8 8 13 14 15 14 13 11 13 10 5 4 5 7 8 8 7 5 4 2 1 1 3 3 2 4 3 4 4 3 7 10 11 12 12 12 11 11
14 11 10 11 10 9 9 7 5 6 6 5 4 5 4 3 3 5 6 8 7 6 4 3 2 1 1 1 2 2 1 3 4 3 4 11 11 12 12 12 12 11 11
16 13 11 11 10 9 6 6 3 3 3 4 5 5 3 3 2 2 2 2 2 2 1 0 0 0 0 0 1 1 3 3 2 3 5 11 11 12 12 13 12 12 11
14 13 11 10 9 7 7 6 5 3 3 3 4 5 4 3 3 2 2 1 1 1 1 1 1 0 0 0 1 2 4 3 2 2 4 11 11 12 13 13 12 12 11
13 12 11 10 8 8 8 6 6 5 4 4 4 4 5 4 4 3 2 2 2 1 1 1 1 1 1 1 1 3 4 4 4 3 3 9 10 11 12 13 13 13 12
12 12 11 11 10 9 7 6 6 5 4 4 4 5 5 4 4 3 3 2 2 1 2 2 2 2 1 1 1 2 3 4 4 4 3 5 10 10 11 12 13 13 13
12 11 10 11 10 9 8 8 6 5 5 4 4 5 5 5 5 4 3 2 1 2 3 3 3 2 2 2 2 1 2 3 4 4 4 3 3 8 10 10 10 11 13
10 11 11 11 9 8 7 7 5 5 5 4 4 4 5 5 6 4 3 2 2 3 3 3 2 3 2 2 1 1 1 1 2 3 3 3 2 3 6 9 10 10 11
11 11 11 10 10 8 7 6 6 5 5 5 4 4 4 5 5 4 3 2 3 3 2 2 2 2 2 1 1 1 1 1 1 2 2 3 3 3 3 5 8 9 10
10 11 11 10 9 8 6 5 5 5 4 4 4 4 5 4 5 5 3 3 4 3 3 2 2 2 1 1 1 2 2 1 0 1 1 1 2 3 3 3 3 5 8
10 10 10 10 9 8 6 6 6 5 4 4 4 5 5 5 5 5 4 3 3 3 2 2 2 3 2 1 3 3 4 3 2 1 1 1 1 1 2 2 2 2 2
10 11 10 10 10 8 6 5 4 5 4 3 3 4 5 5 5 5 5 3 3 3 3 3 3 2 2 2 3 3 3 4 4 3 1 1 1 1 1 2 2 2 1
11 12 11 10 9 8 7 6 5 4 3 2 3 3 4 5 5 5 5 4 4 3 3 2 3 3 2 2 1 3 3 2 2 3 3 1 1 1 1 1 2 2 2
10 10 10 10 10 9 8 8 9 7 5 5 4 3 4 4 5 5 5 5 4 3 3 2 3 3 3 1 2 1 2 3 3 1 3 3 2 0 0 1 2 2 2
9 9 9 9 9 8 8 9 8 6 4 4 4 5 4 3 5 5 5 5 4 3 4 3 3 3 2 2 1 1 2 2 2 3 0 3 3 2 1 1 1 1 2
8 8 9 10 9 9 9 8 8 8 7 7 6 5 4 2 3 4 5 5 5 4 4 3 3 4 3 3 2 2 2 2 1 2 2 1 2 3 2 1 1 1 2
Wind_Direction
149 151 144 137 131 126 122 119 116 114 111 109 107 106 104 105 105 105 105 105 104 103 101 100 99 97 98 98 100 102 105 107 109 110 110 110 112 114 112 110 108 107 109
147 150 143 138 134 130 127 125 123 120 117 114 112 111 110 109 109 108 109 108 106 104 102 101 100 98 97 97 98 100 104 107 109 110 110 109 113 115 114 113 111 115 114
142 146 142 139 136 134 132 130 128 125 122 120 118 116 114 114 114 113 112 111 109 106 104 102 101 100 97 95 95 97 101 104 107 109 106 99 108 114 116 116 115 114 114
141 142 142 141 138 136 135 134 133 130 128 126 123 121 119 118 118 117 115 113 110 109 107 105 103 100 96 93 91 90 94 103 112 114 107 104 110 116 118 118 117 116 115
139 141 146 142 140 139 138 137 136 134 132 131 128 126 125 123 121 118 118 115 113 112 109 108 106 102 97 92 88 81 78 93 111 116 115 106 107 122 122 122 120 119 118
139 141 146 143 142 141 140 140 139 137 136 133 132 131 130 128 125 123 122 120 117 114 111 108 107 103 96 88 80 68 61 81 101 105 112 117 119 128 127 127 125 124 123
139 142 146 144 144 143 143 143 142 141 139 137 136 135 134 132 129 128 127 125 122 120 118 114 109 102 94 82 69 59 60 80 105 114 118 121 130 132 131 130 129 129 128
141 141 145 147 146 146 146 146 146 145 144 143 141 139 138 136 134 134 133 132 129 127 126 124 117 106 90 71 59 55 68 89 106 123 123 125 139 137 136 135 134 134 134
141 141 143 148 148 149 149 149 149 149 150 149 147 145 144 144 143 142 142 141 139 138 138 137 132 117 88 53 45 55 80 102 113 127 138 141 143 143 143 142 141 140 139
143 146 146 145 145 147 151 153 153 153 154 152 151 152 152 153 152 153 152 152 152 153 153 150 145 136 42 342 358 54 94 110 126 131 136 159 154 153 151 149 148 146 145
147 151 150 149 147 147 151 159 155 156 158 157 157 159 156 150 153 158 165 166 165 166 169 172 178 208 299 322 327 30 97 126 133 136 149 171 167 163 160 158 156 154 153
158 161 160 157 155 155 160 151 152 155 157 155 159 161 154 159 173 172 179 175 172 173 178 190 216 248 310 329 333 34 102 134 133 149 172 179 177 173 169 166 165 163 161
162 163 163 163 162 163 150 151 154 150 155 163 170 169 159 157 163 151 155 165 162 163 132 111 59 57 11 312 25 91 123 130 143 161 177 184 182 181 177 173 172 171 169
160 165 165 165 163 164 151 157 159 158 168 175 173 161 149 146 144 142 141 137 125 115 121 97 86 86 76 82 91 113 127 131 146 153 182 190 192 189 184 180 179 177 176
157 161 162 155 161 161 154 162 163 166 175 174 162 156 148 144 144 139 133 124 126 126 125 104 89 87 94 90 99 114 133 147 157 164 188 199 200 197 192 186 185 184 184
158 159 160 154 161 161 158 157 159 162 164 158 147 144 139 137 139 132 122 111 102 109 113 104 91 85 72 67 77 111 138 150 161 171 183 211 210 204 199 193 192 190 190
152 154 155 156 160 159 155 155 155 155 153 147 141 137 134 131 131 126 118 109 104 97 92 76 61 63 65 61 55 73 127 153 165 173 180 199 212 209 202 197 197 197 197
144 152 158 159 157 155 149 144 147 149 149 143 140 136 131 127 127 118 115 110 100 90 88 85 65 65 57 59 53 31 78 142 165 180 185 193 201 208 208 204 202 203 204
155 158 160 158 156 153 148 143 141 143 144 141 136 132 128 125 125 120 118 112 99 86 80 88 71 85 71 42 32 67 47 125 163 170 174 191 197 201 203 213 211 210 213
162 165 161 157 154 150 143 130 125 129 136 138 136 137 131 128 125 117 114 107 102 93 79 76 73 62 88 70 40 39 9 5 86 121 150 165 187 190 186 201 210 221 220
166 166 162 160 160 155 149 145 143 148 148 144 146 144 138 134 129 122 117 113 108 108 112 102 87 61 36 47 63 27 5 12 30 51 85 102 111 139 156 180 189 203 228
173 171 169 165 164 163 159 154 149 143 147 150 145 146 147 140 138 137 128 130 124 112 95 80 82 82 28 51 104 85 33 5 357 8 14 90 88 86 128 165 169 180 201
174 170 170 169 165 164 155 136 126 109 104 112 143 155 161 150 143 138 140 135 132 125 122 109 99 102 78 15 83 129 129 190 315 337 351 16 56 74 81 143 159 168 173
183 173 166 167 165 167 158 153 153 156 160 175 171 167 166 156 151 147 144 139 135 132 133 132 112 110 108 60 10 45 132 151 137 357 334 340 349 37 212 159 147 153 154
181 170 164 161 165 167 166 161 159 157 160 154 152 155 162 163 160 154 148 141 138 138 140 129 115 109 114 122 100 66 63 63 92 128 265 323 338 321 290 204 177 170 166
174 168 165 167 172 171 169 167 166 164 161 155 162 165 169 167 168 164 155 149 149 147 148 146 136 127 126 122 114 108 121 120 132 129 153 257 298 300 310 298 228 196 188